Location: *
(51.4660°N, 0.3360°W)
Time: 05:44:27
(UTC+00:00)

Cosmos 1371 Rocket - Pass Details

Date: 19 September 2019
Orbit: 753 x 790 km, 74.0° (Epoch: 22 October)

Event Time Altitude Azimuth Distance (km) Brightness Sun altitude
Rises 19:55:51 0° 199° (SSW) 3,246 7.2 -17.1°
Reaches altitude 10° 19:58:12 10° 198° (SSW) 2,328 6.4 -17.5°
Maximum altitude 20:03:30 81° 113° (ESE) 802 3.9 -18.2°
Drops below altitude 10° 20:08:53 10° 26° (NNE) 2,362 6.5 -19.0°
Sets 20:11:18 0° 26° (NNE) 3,298 7.3 -19.3°
